This is the latest recevied weather packets stored in our database for station/object KB1JDX. If no packets are shown the sender has not sent any weather packets the latest 10 day(s).
| Time | Temp. | Humidity | Pressure | Rain* | Wind** | Luminosity | Snow |
|---|---|---|---|---|---|---|---|
| 1787934672 | 27.22° C | 14% | 1015.5 hPa | 0 mm | 0 m/s | - | - |
| 1787933536 | 26.67° C | 4% | 1015.7 hPa | 0 mm | 0 m/s | - | - |
| 1787932338 | 25.56° C | 100% | 1015.6 hPa | 0 mm | 0 m/s | - | - |
| 1787931137 | 25° C | 100% | 1015.6 hPa | 0 mm | 0 m/s | - | - |
| 1787931072 | 25° C | 100% | 1015.6 hPa | 0 mm | 0 m/s | - | - |
| 1787929938 | 25° C | 100% | 1015.8 hPa | 0 mm | 0 m/s | - | - |
| 1787928736 | 24.44° C | 100% | 1015.8 hPa | 0 mm | 0 m/s | - | - |
| 1787927536 | 23.89° C | 100% | 1015.7 hPa | 0 mm | 0 m/s | - | - |
| 1787927472 | 23.89° C | 100% | 1015.7 hPa | 0 mm | 0 m/s | - | - |
| 1787926338 | 22.78° C | 100% | 1015.7 hPa | 0 mm | 0 m/s | - | - |
| 1787925139 | 22.22° C | 100% | 1015.8 hPa | 0 mm | 0 m/s | - | - |
| 1787923873 | 22.22° C | 100% | 1015.7 hPa | 0 mm | 0 m/s | - | - |
| 1787922736 | 21.67° C | 100% | 1015.7 hPa | 0 mm | 0 m/s | - | - |
| 1787921536 | 21.67° C | 100% | 1015.7 hPa | 0 mm | 0 m/s | - | - |
| 1787920336 | 21.67° C | 100% | 1015.4 hPa | 0 mm | 0 m/s | - | - |
| 1787920273 | 21.67° C | 100% | 1015.4 hPa | 0 mm | 0 m/s | - | - |
| 1787919136 | 21.11° C | 100% | 1015.4 hPa | 0 mm | 0 m/s | - | - |
| 1787916736 | 21.67° C | 100% | 1015.3 hPa | 0 mm | 0 m/s | - | - |
| 1787916672 | 21.67° C | 100% | 1015.3 hPa | 0 mm | 0 m/s | - | - |
| 1787915536 | 21.11° C | 100% | 1015 hPa | 0 mm | 0 m/s | - | - |
| 1787913072 | 21.11° C | 100% | 1014.6 hPa | 0 mm | 0 m/s | - | - |
| 1787910737 | 21.11° C | 100% | 1014.1 hPa | 0 mm | 0 m/s | - | - |
| 1787909536 | 21.11° C | 100% | 1014.1 hPa | 0 mm | 0 m/s | - | - |
| 1787909472 | 21.11° C | 100% | 1014.1 hPa | 0 mm | 0 m/s | - | - |
| 1787908336 | 21.11° C | 100% | 1014.1 hPa | 0 mm | 0 m/s | - | - |
* Rain latest hour (hover to see other rain measurements)
** Current wind speed in m/s (hover to see current wind gust speed)